Location: Quedlinburg
(51.7921°N, 11.1414°E)
Time: 11:32:16
(UTC+01:00)

DIWATA 2B (PO-101) - Visible Passes

Search period start: 15 March 2026 00:00
Search period end: 25 March 2026 00:00
Orbit: 558 x 575 km, 98.1° (Epoch: 14 March)

Date Brightness Start Highest point End Pass type
(mag) Time Alt. Az. Time Alt. Az. Time Alt. Az.
15 Mar ? 04:14:24 10° E 04:16:29 14° NE 04:18:34 10° NNE visible
15 Mar ? 05:46:54 10° SSE 05:50:56 86° WSW 05:54:59 10° NNW visible
15 Mar ? 18:55:33 10° NNE 18:59:33 69° ESE 19:03:33 10° S visible
15 Mar ? 20:31:36 10° NNW 20:34:08 16° WNW 20:36:40 10° W visible
16 Mar ? 04:15:15 10° E 04:17:21 14° NE 04:19:28 10° NNE visible
16 Mar ? 05:47:46 10° SSE 05:51:49 84° WSW 05:55:52 10° NNW visible
16 Mar ? 18:56:25 10° NNE 19:00:26 70° ESE 19:04:25 10° S visible
16 Mar ? 20:32:30 10° NNW 20:35:00 16° WNW 20:37:30 10° W visible
17 Mar ? 04:16:04 10° E 04:18:13 14° NE 04:20:21 10° NNE visible
17 Mar ? 05:48:39 10° SSE 05:52:41 83° WSW 05:56:44 10° NNW visible
17 Mar ? 18:57:16 10° NNE 19:01:18 71° ESE 19:05:17 10° S visible
17 Mar ? 20:33:22 10° NNW 20:35:51 16° WNW 20:38:19 10° W visible
18 Mar ? 04:16:53 10° E 04:19:04 14° ENE 04:21:14 10° NNE visible
18 Mar ? 18:58:07 10° NNE 19:02:09 72° ESE 19:06:09 10° S visible
18 Mar ? 20:34:14 10° NNW 20:36:41 16° WNW 20:39:08 10° W visible
19 Mar ? 04:17:42 10° E 04:19:54 14° ENE 04:22:06 10° NNE visible
19 Mar ? 18:58:58 10° NNE 19:02:59 73° ESE 19:07:00 10° S visible
19 Mar ? 20:35:06 10° NNW 20:37:31 16° WNW 20:39:57 10° W visible
20 Mar ? 04:18:30 10° E 04:20:44 15° ENE 04:22:58 10° NNE visible
20 Mar ? 18:59:48 10° NNE 19:03:49 74° ESE 19:07:50 10° S visible
20 Mar ? 20:35:57 10° NNW 20:38:21 16° WNW 20:40:45 10° W visible
21 Mar ? 04:19:17 10° E 04:21:34 15° ENE 04:23:49 10° NNE visible
21 Mar ? 19:00:37 10° NNE 19:04:39 75° ESE 19:08:39 10° S visible
21 Mar ? 20:36:48 10° NNW 20:39:10 15° WNW 20:41:32 10° W visible
22 Mar ? 04:20:05 10° E 04:22:22 15° ENE 04:24:39 10° NNE visible
22 Mar ? 19:01:25 10° NNE 19:05:27 76° ESE 19:09:28 10° S visible
22 Mar ? 20:37:38 10° NNW 20:39:58 15° WNW 20:42:18 10° W visible
23 Mar ? 04:20:51 10° E 04:23:10 15° ENE 04:25:29 10° NNE visible
23 Mar ? 19:02:13 10° NNE 19:06:16 77° ESE 19:10:17 10° S visible
23 Mar ? 20:38:27 10° NNW 20:40:46 15° WNW 20:43:04 10° W visible
24 Mar ? 04:21:37 10° E 04:23:57 15° ENE 04:26:18 10° NNE visible
24 Mar ? 19:03:01 10° NNE 19:07:03 78° ESE 19:11:05 10° S visible
24 Mar ? 20:39:15 10° NNW 20:41:33 15° WNW 20:43:51 10° W visible
